When you browse on this site, cookies collect data to enhance your experience and personalize the content and advertising you see.
Visit our Privacy Policy to learn more. By continuing to use the site, you agree to this use of cookies and data.
  • In Czech Republic
  • List of Countries
  • For 7 days
  • Water Temperature
  • Satellite Maps
  • Weather Map
  • Weather Widgets
  • user-avatar
    Login

    Hourly Weather Savino

    Today, 19 December, Wednesday

    Time Temperature Precipitation Wind Pressure Humidity
    00:00 -16°C° 0 mm 2 mps 757 mmHg 96%
    01:00 -15°C° 0 mm 2 mps 757 mmHg 96%
    02:00 -15°C° 0 mm 2 mps 758 mmHg 96%
    03:00 -15°C° 0 mm 2 mps 758 mmHg 96%
    04:00 -16°C° 0 mm 2 mps 758 mmHg 93%
    05:00 -16°C° 0 mm 2 mps 758 mmHg 92%
    06:00 -16°C° 0 mm 2 mps 758 mmHg 92%
    07:00 -17°C° 0 mm 2 mps 759 mmHg 91%
    08:00 -17°C° 0 mm 2 mps 759 mmHg 91%
    09:00 -17°C° 0 mm 2 mps 759 mmHg 91%
    10:00 -15°C° 0 mm 1 mps 760 mmHg 92%
    11:00 -14°C° 0 mm 1 mps 760 mmHg 91%
    12:00 -13°C° 0 mm 1 mps 760 mmHg 90%
    13:00 -12°C° 0 mm 1 mps 760 mmHg 90%
    14:00 -13°C° 0 mm 1 mps 761 mmHg 91%
    15:00 -13°C° 0 mm 1 mps 761 mmHg 93%
    16:00 -14°C° 0 mm 1 mps 761 mmHg 95%
    17:00 -14°C° 0 mm 1 mps 761 mmHg 95%
    18:00 -13°C° 0 mm 1 mps 762 mmHg 95%
    19:00 -13°C° 0 mm 0 mps 762 mmHg 96%
    20:00 -13°C° 0 mm 0 mps 762 mmHg 96%
    21:00 -13°C° 0 mm 0 mps 762 mmHg 96%
    22:00 -13°C° 0 mm 0 mps 763 mmHg 96%
    23:00 -13°C° 0 mm 0 mps 763 mmHg 96%

    Tomorrow, 20 December, Thursday

    Time Temperature Precipitation Wind Pressure Humidity
    00:00 -13°C° 0 mm 0 mps 763 mmHg 96%
    01:00 -13°C° 0 mm 0 mps 763 mmHg 96%
    02:00 -13°C° 0 mm 0 mps 764 mmHg 96%
    03:00 -13°C° 0 mm 0 mps 764 mmHg 96%
    04:00 -12°C° 0 mm 0 mps 764 mmHg 96%
    05:00 -13°C° 0 mm 0 mps 764 mmHg 96%
    06:00 -13°C° 0 mm 1 mps 764 mmHg 96%
    07:00 -13°C° 0 mm 1 mps 765 mmHg 96%
    08:00 -13°C° 0 mm 1 mps 765 mmHg 96%
    09:00 -13°C° 0 mm 1 mps 765 mmHg 96%
    10:00 -13°C° 0 mm 1 mps 765 mmHg 96%
    11:00 -13°C° 0 mm 1 mps 765 mmHg 95%
    12:00 -12°C° 0 mm 1 mps 765 mmHg 94%
    13:00 -12°C° 0 mm 1 mps 764 mmHg 93%
    14:00 -13°C° 0 mm 1 mps 764 mmHg 94%
    15:00 -13°C° 0 mm 1 mps 764 mmHg 95%
    16:00 -14°C° 0 mm 1 mps 764 mmHg 96%
    17:00 -14°C° 0 mm 1 mps 764 mmHg 96%
    18:00 -15°C° 0 mm 1 mps 764 mmHg 96%
    19:00 -15°C° 0 mm 1 mps 763 mmHg 96%
    20:00 -16°C° 0 mm 1 mps 763 mmHg 96%
    21:00 -16°C° 0 mm 1 mps 763 mmHg 96%
    22:00 -16°C° 0 mm 1 mps 763 mmHg 96%
    23:00 -17°C° 0 mm 1 mps 762 mmHg 96%

    Day after tomorrow, 21 December, Friday

    Time Temperature Precipitation Wind Pressure Humidity
    00:00 -19°C° 0 mm 2 mps 762 mmHg 95%
    01:00 -19°C° 0 mm 2 mps 762 mmHg 95%
    02:00 -19°C° 0 mm 2 mps 761 mmHg 95%
    03:00 -20°C° 0 mm 2 mps 761 mmHg 95%
    04:00 -20°C° 0 mm 2 mps 761 mmHg 95%
    05:00 -20°C° 0 mm 2 mps 761 mmHg 96%
    06:00 -20°C° 0 mm 2 mps 760 mmHg 96%
    07:00 -21°C° 0 mm 2 mps 760 mmHg 96%
    08:00 -20°C° 0 mm 2 mps 760 mmHg 96%
    09:00 -20°C° 0 mm 2 mps 759 mmHg 96%
    10:00 -20°C° 0 mm 2 mps 759 mmHg 95%
    11:00 -19°C° 0 mm 2 mps 759 mmHg 94%
    12:00 -19°C° 0 mm 2 mps 759 mmHg 93%
    13:00 -18°C° 0 mm 2 mps 758 mmHg 91%
    14:00 -18°C° 0 mm 2 mps 758 mmHg 92%
    15:00 -18°C° 0 mm 2 mps 758 mmHg 93%
    16:00 -18°C° 0 mm 2 mps 757 mmHg 95%
    17:00 -18°C° 0 mm 2 mps 757 mmHg 95%
    18:00 -18°C° 0 mm 2 mps 757 mmHg 95%
    19:00 -15°C° 0 mm 1 mps 756 mmHg 95%
    20:00 -15°C° 0.1 mm 1 mps 756 mmHg 95%
    21:00 -15°C° 0.1 mm 1 mps 756 mmHg 95%
    22:00 -15°C° 0.1 mm 1 mps 755 mmHg 95%
    23:00 -15°C° 0.1 mm 1 mps 755 mmHg 96%

    22 December, Saturday

    Time Temperature Precipitation Wind Pressure Humidity
    00:00 -15°C° 0.1 mm 1 mps 755 mmHg 96%
    01:00 -15°C° 0.1 mm 1 mps 755 mmHg 96%
    02:00 -15°C° 0 mm 1 mps 754 mmHg 96%
    03:00 -15°C° 0 mm 1 mps 754 mmHg 96%
    04:00 -16°C° 0 mm 1 mps 754 mmHg 96%
    05:00 -16°C° 0 mm 1 mps 754 mmHg 96%
    06:00 -16°C° 0 mm 1 mps 754 mmHg 97%
    07:00 -17°C° 0 mm 1 mps 754 mmHg 97%
    08:00 -17°C° 0 mm 1 mps 754 mmHg 97%
    09:00 -17°C° 0 mm 1 mps 754 mmHg 97%
    10:00 -18°C° 0 mm 1 mps 754 mmHg 97%
    11:00 -17°C° 0 mm 1 mps 754 mmHg 95%
    12:00 -16°C° 0 mm 1 mps 754 mmHg 94%
    13:00 -16°C° 0 mm 1 mps 754 mmHg 92%
    14:00 -17°C° 0 mm 1 mps 755 mmHg 94%
    15:00 -18°C° 0 mm 1 mps 755 mmHg 95%
    16:00 -18°C° 0 mm 0 mps 755 mmHg 97%
    17:00 -19°C° 0 mm 0 mps 755 mmHg 97%
    18:00 -19°C° 0 mm 0 mps 755 mmHg 97%
    19:00 -19°C° 0 mm 0 mps 755 mmHg 97%
    20:00 -20°C° 0 mm 0 mps 755 mmHg 98%
    21:00 -20°C° 0 mm 0 mps 755 mmHg 98%
    22:00 -20°C° 0 mm 0 mps 755 mmHg 98%
    23:00 -20°C° 0 mm 0 mps 755 mmHg 98%

    23 December, Sunday

    Time Temperature Precipitation Wind Pressure Humidity
    00:00 -20°C° 0 mm 1 mps 755 mmHg 98%
    01:00 -20°C° 0 mm 1 mps 755 mmHg 98%
    02:00 -20°C° 0 mm 1 mps 755 mmHg 98%
    03:00 -20°C° 0 mm 1 mps 755 mmHg 98%
    04:00 -20°C° 0 mm 1 mps 755 mmHg 98%
    05:00 -20°C° 0 mm 1 mps 755 mmHg 98%
    06:00 -20°C° 0 mm 1 mps 755 mmHg 97%
    07:00 -20°C° 0 mm 1 mps 755 mmHg 97%
    08:00 -20°C° 0 mm 1 mps 755 mmHg 97%
    09:00 -23°C° 0 mm 2 mps 755 mmHg 97%
    10:00 -23°C° 0 mm 2 mps 755 mmHg 96%
    11:00 -21°C° 0 mm 2 mps 755 mmHg 95%
    12:00 -20°C° 0 mm 2 mps 755 mmHg 93%
    13:00 -19°C° 0 mm 2 mps 755 mmHg 91%
    14:00 -20°C° 0 mm 2 mps 755 mmHg 93%
    15:00 -20°C° 0 mm 2 mps 755 mmHg 94%
    16:00 -21°C° 0 mm 2 mps 755 mmHg 95%
    17:00 -21°C° 0 mm 2 mps 755 mmHg 95%
    18:00 -20°C° 0 mm 2 mps 755 mmHg 95%
    19:00 -20°C° 0 mm 2 mps 754 mmHg 95%
    20:00 -20°C° 0 mm 2 mps 754 mmHg 95%
    21:00 -22°C° 0 mm 3 mps 754 mmHg 95%
    22:00 -22°C° 0 mm 3 mps 754 mmHg 95%
    23:00 -22°C° 0 mm 3 mps 754 mmHg 95%

    24 December, Monday

    Time Temperature Precipitation Wind Pressure Humidity
    00:00 -22°C° 0 mm 3 mps 753 mmHg 95%
    01:00 -22°C° 0 mm 3 mps 753 mmHg 95%
    02:00 -22°C° 0 mm 3 mps 753 mmHg 94%
    03:00 -22°C° 0 mm 3 mps 753 mmHg 94%
    04:00 -22°C° 0 mm 3 mps 753 mmHg 93%
    05:00 -21°C° 0 mm 3 mps 752 mmHg 93%
    06:00 -22°C° 0 mm 4 mps 752 mmHg 92%
    07:00 -22°C° 0 mm 4 mps 752 mmHg 91%
    08:00 -20°C° 0 mm 4 mps 751 mmHg 90%
    09:00 -20°C° 0 mm 4 mps 751 mmHg 88%
    10:00 -20°C° 0 mm 4 mps 751 mmHg 87%
    11:00 -18°C° 0 mm 4 mps 751 mmHg 86%
    12:00 -18°C° 0 mm 5 mps 750 mmHg 84%
    13:00 -17°C° 0 mm 5 mps 750 mmHg 83%
    14:00 -17°C° 0 mm 5 mps 750 mmHg 84%
    15:00 -17°C° 0 mm 5 mps 749 mmHg 84%
    16:00 -17°C° 0 mm 5 mps 749 mmHg 85%
    17:00 -15°C° 0.1 mm 5 mps 749 mmHg 85%
    18:00 -15°C° 0.1 mm 5 mps 749 mmHg 86%
    19:00 -15°C° 0.1 mm 5 mps 749 mmHg 86%
    20:00 -14°C° 0.1 mm 5 mps 748 mmHg 86%
    21:00 -14°C° 0.1 mm 5 mps 748 mmHg 86%
    22:00 -14°C° 0.1 mm 5 mps 748 mmHg 87%
    23:00 -14°C° 0.1 mm 5 mps 748 mmHg 86%
    Show more